[Iaude] MPEC A140: 2024 AO3 [a=1.14,e=0.01,i=19.3,H=24.0]
    mpec at marsden.cfa.harvard.edu 
    mpec at marsden.cfa.harvard.edu
       
    Thu Jan 11 22:57:59 EST 2024
    
    
  
M.P.E.C. 2024-A140                             Issued 2024 January 12, 03:56 UT
     The Minor Planet Electronic Circulars contain information on unusual
         minor planets, routine data on comets and natural satellites,
         and occasional editorial announcements.  They are published
    on behalf of Division F of the International Astronomical Union by the
          Minor Planet Center, Smithsonian Astrophysical Observatory,
                          Cambridge, MA 02138, U.S.A.
			  
             Prepared using the Tamkin Foundation Computer Network
                              MPC at CFA.HARVARD.EDU
            URL https://www.minorplanetcenter.net/    ISSN 1523-6714
                                    2024 AO3                                    
Observations:
     K24A03O  C2024 01 08.37604507 57 57.223+39 22 20.60         21.57GVEA140F51
     K24A03O  C2024 01 08.38748207 57 53.034+39 21 21.10         21.08GVEA140F51
     K24A03O* C2024 01 10.96865107 43 27.12 +35 18 52.4          20.5 RoEA140K88
     K24A03O  C2024 01 10.97162507 43 26.09 +35 18 34.7          20.1 RoEA140K88
     K24A03O  C2024 01 10.97459707 43 25.10 +35 18 16.5          20.7 RoEA140K88
     K24A03O KC2024 01 11.01262507 43 12.00 +35 14 31.0          20.5 RoEA140K88
     K24A03O KC2024 01 11.01708107 43 10.39 +35 14 04.1          20.9 RoEA140K88
     K24A03O KC2024 01 11.06091107 42 55.26 +35 09 42.6          20.8 RoEA140K88
     K24A03O KC2024 01 11.06448407 42 54.04 +35 09 20.2          21.1 RoEA140K88
     K24A03O 1C2024 01 11.06671 07 42 53.78 +35 09 07.2          20.3 VXEA140033
     K24A03O 1C2024 01 11.06786 07 42 53.45 +35 09 00.7          20.4 VXEA140033
     K24A03O 1C2024 01 11.06900 07 42 53.05 +35 08 53.4          20.6 VXEA140033
     K24A03O hC2024 01 11.09819807 42 42.76 +35 06 02.2          20.8 GVEA140L01
     K24A03O hC2024 01 11.10053507 42 41.97 +35 05 47.9          20.8 GVEA140L01
     K24A03O hC2024 01 11.10252107 42 41.29 +35 05 36.5          21.2 GVEA140L01
     K24A03O hC2024 01 11.10584407 42 40.19 +35 05 16.1          21.0 GVEA140L01
     K24A03O hC2024 01 11.11009407 42 38.71 +35 04 49.9          21.1 GVEA140L01
     K24A03O KC2024 01 11.21161507 42 10.00 +34 55 00.8          21.2 GXEA140858
     K24A03O KC2024 01 11.22200507 42 06.44 +34 53 59.5          20.8 GXEA140858
     K24A03O KC2024 01 12.02077 07 37 46.01 +33 33 44.7                VEA140204
     K24A03O KC2024 01 12.03607 07 37 40.83 +33 32 10.9          21.1 GVEA140204
Observer details:
033 Karl Schwarzschild Observatory, Tautenburg.  Observers S. Melnikov, C.
    Hogner, F. Ludwig, M. Hartmann, B. Stecklum.  Measurer B. Stecklum.
    1.34-m f/3 Schmidt + CCD.
204 Schiaparelli Observatory.  Observers L. Buzzi, G. Galli.  0.84-m f/3.5
    reflector + CCD.
858 Tebbutt Observatory, Edgewood.  Observer F. B. Zoltowski.  0.51-m f/8.1
    Schmidt-Cassegrain + CCD.
F51 Pan-STARRS 1, Haleakala.  Observers J. Herman, T. Lowe, P. Minguez, A.
    Schultz, I. Smith.  Measurers K. Chambers, T. de Boer, J. Fairlamb, H.
    Gao, M. Huber, C.-C. Lin, E. Magnier, Y. Ramanjooloo, R. Wainscoat, R.
    Weryk.  1.8-m Ritchey-Chretien + CCD.
K88 GINOP-KHK, Piszkesteto.  Observer K. Sarneczky.  0.60-m Schmidt + CCD.
L01 Visnjan Observatory, Tican.  Observers K. Korlevic, L. Poropat.  Measurer
    K. Korlevic.  1.0-m f/2.9 reflector + CCD.
Orbital elements:
2024 AO3                                                 Earth MOID = 0.1316 AU
Epoch 2023 Sept. 13.0 TT = JDT 2460200.5                MPC                     
M 186.70282              (2000.0)            P               Q                  
n   0.80540191     Peri.  252.22148     -0.94254784     +0.15217574             
a   1.1440920      Node   295.63931     +0.02063295     -0.86200912             
e   0.0126536      Incl.   19.26151     -0.33343343     -0.48351094             
P   1.22           H   24.06          G   0.15           U   9                  
Residuals in seconds of arc
240108 F51  0.1+  0.2-    240111 K88  0.8-  0.2-    240111 L01  0.2+  0.2+
240108 F51  0.2-  0.2+    240111 K88  0.8-  1.2-    240111 L01  0.6+  0.1-
240110 K88  0.0   0.6+    240111 033  0.0   0.3+    240111 L01  0.2+  0.7-
240110 K88  0.0   0.4+    240111 033  0.8+  0.7+    240111 858  0.3-  0.6+
240110 K88  0.5+  0.2-    240111 033  0.6+  0.2+    240111 858  0.0   0.2+
240111 K88  1.0+  0.2-    240111 L01  0.2+  0.1-    240112 204  0.0   0.1+
240111 K88  0.1+  0.6-    240111 L01  0.3+  0.3-    240112 204  0.0   0.0
Ephemeris:
2024 AO3                 a,e,i = 1.14, 0.01, 19                  q = 1.1296
Date    TT    R. A. (2000) Decl.     Delta      r    Elong.  Phase     V
2023 12 13    09 55 13.1 +58 37 53   0.2731  1.1468   120.3    47.9    23.3
...
2023 12 28    09 01 18.2 +51 49 26   0.2030  1.1437   138.7    34.6    22.3
...
2024 01 05    08 17 18.0 +43 59 06   0.1745  1.1421   153.4    22.6    21.6
...
2024 01 11    07 43 17.2 +35 16 03   0.1615  1.1409   166.2    11.9    21.1
2024 01 12    07 37 53.6 +33 36 08   0.1602  1.1407   168.1    10.2    21.0
2024 01 13    07 32 37.5 +31 53 24   0.1592  1.1405   169.7     8.8    21.0
...
2024 01 19    07 04 20.9 +21 05 14   0.1591  1.1393   166.8    11.3    21.1
...
2024 01 27    06 36 51.7 +07 33 54   0.1740  1.1378   149.4    26.2    21.7
...
2024 02 11    06 12 44.4 -08 57 59   0.2323  1.1351   124.7    45.7    22.9
A. U. Tomatic                (C) Copyright 2024 MPC           M.P.E.C. 2024-A140
    
    
More information about the Iaude
mailing list